Theta_e
309 308 308 308 309 308 307 306 306 300 300 303 306 310 311 312 316 313 312 320 322 321 320 318 317 317 317 316 316 316 316 316 315 316 317 317 317 318
305 304 303 303 303 304 304 305 305 301 300 301 303 306 308 311 315 312 313 316 318 320 320 322 320 319 319 318 319 319 319 318 316 316 316 317 317 317
303 302 302 301 300 300 300 300 300 303 300 302 303 305 302 302 303 303 306 304 306 318 317 316 315 318 319 319 319 320 320 320 320 320 320 320 319 318
301 301 301 303 299 298 298 298 298 299 299 296 299 302 302 301 301 300 303 306 303 314 314 314 314 314 314 314 315 316 315 315 316 317 317 318 318 317
302 302 301 300 298 298 297 297 298 300 298 297 296 298 299 299 299 299 300 300 304 311 311 312 312 312 312 313 313 313 312 311 310 312 313 314 316 315
300 301 303 302 299 298 298 297 298 298 297 296 296 295 295 298 297 295 297 298 298 303 307 308 308 310 310 311 312 313 311 309 308 308 308 308 308 309
298 299 304 310 311 306 300 299 298 297 296 295 294 293 294 294 294 295 294 296 296 297 299 300 300 300 302 305 308 310 309 309 308 308 307 306 304 305
295 297 299 304 305 311 311 311 306 297 295 294 293 293 294 293 294 294 293 293 292 298 297 297 299 300 300 302 307 307 308 307 307 307 306 305 304 300
295 295 297 300 302 301 303 304 304 308 305 297 295 295 294 295 294 294 294 293 294 297 297 295 297 297 300 302 306 307 307 307 306 306 305 304 303 301
296 295 294 295 298 298 298 297 297 301 301 302 298 298 297 299 296 296 296 295 296 296 301 296 298 298 299 299 305 307 305 305 305 306 305 304 302 301
297 297 296 295 299 299 297 296 296 301 306 307 305 303 301 302 303 297 296 294 294 294 302 302 302 301 297 298 301 305 304 304 304 304 304 304 302 301
298 297 301 300 298 298 295 294 297 299 302 302 301 300 301 301 304 298 296 294 297 299 303 302 302 301 295 299 300 301 304 304 303 303 303 303 302 302
297 301 299 300 298 297 297 296 298 299 299 297 297 297 298 299 299 299 297 296 296 301 305 304 302 301 300 298 297 298 298 298 300 301 304 303 301 302
296 296 298 299 297 297 297 297 299 302 297 297 295 295 295 296 298 298 299 298 299 301 305 302 302 301 299 298 293 297 297 300 298 303 305 305 303 303
295 297 298 297 298 300 299 299 300 298 296 295 294 294 294 296 297 298 299 298 297 298 301 298 302 302 299 297 296 296 296 299 300 302 303 306 306 306
298 302 300 300 300 301 302 301 297 300 296 295 294 295 296 296 296 296 296 295 293 295 297 298 297 301 298 298 297 294 297 296 299 300 301 302 304 304
297 301 298 297 298 299 300 300 301 298 296 295 295 295 296 296 296 296 295 293 292 292 293 294 296 296 301 299 292 296 296 296 297 298 299 299 302 303
300 298 294 295 296 299 299 299 300 301 298 296 295 295 295 295 295 295 295 294 292 292 292 292 292 293 294 296 300 292 291 296 293 293 296 297 299 302
298 292 294 297 298 299 299 299 299 300 301 300 294 294 295 295 296 295 296 295 294 292 293 292 291 290 292 289 293 300 292 292 293 291 291 292 295 298
293 292 296 298 298 295 294 295 298 296 293 293 293 295 294 294 295 297 298 296 296 293 292 292 291 291 292 292 294 293 296 293 292 296 295 293 293 296
293 294 297 297 296 294 293 293 292 292 291 291 291 295 297 294 298 296 300 295 293 294 292 292 294 289 293 293 292 290 293 297 297 293 293 294 291 291
293 293 294 295 294 293 292 292 290 289 288 289 289 292 296 297 297 295 295 295 295 294 293 294 296 293 292 291 292 290 291 293 297 300 300 299 296 292
294 295 294 293 292 292 291 290 289 288 287 287 288 293 294 295 297 294 294 295 295 294 294 294 294 297 295 296 293 294 292 295 295 294 294 299 300 300
Wind_Speed
6 6 5 4 4 4 3 2 3 2 4 4 3 4 4 4 6 4 5 10 12 11 7 5 4 3 3 5 6 4 5 3 4 4 6 10 9 13
5 8 6 4 5 4 4 3 3 3 4 2 3 2 5 4 8 6 6 12 13 15 13 9 8 8 8 8 9 10 10 9 7 7 7 9 7 8
7 7 8 6 5 5 4 4 4 2 4 3 3 4 5 5 6 6 6 6 6 15 15 14 15 9 8 10 12 12 11 10 9 9 10 10 11 13
6 7 7 5 7 6 5 6 5 5 4 4 3 5 5 3 4 4 5 5 5 10 14 14 12 11 9 8 8 9 9 10 9 9 9 9 9 10
6 6 6 7 7 5 6 6 5 4 5 3 3 2 2 3 4 4 4 5 3 11 12 12 13 12 12 13 11 9 8 8 7 8 10 9 8 7
6 6 6 6 5 6 6 6 4 5 4 4 3 3 2 3 2 3 5 3 4 4 9 8 10 12 11 12 11 11 11 9 8 6 6 5 5 4
6 6 6 7 7 7 3 4 5 4 3 3 3 3 3 3 3 3 3 4 3 3 5 4 4 5 5 10 10 13 12 9 7 6 5 4 2 3
6 6 6 10 8 11 9 9 5 3 3 2 2 2 3 2 3 3 3 4 4 2 4 4 4 6 4 5 14 13 12 10 5 4 4 4 4 5
6 6 6 5 8 6 9 9 9 8 3 2 2 1 2 2 2 4 2 2 3 4 3 4 3 5 4 5 12 11 9 9 8 7 6 5 3 6
4 4 4 5 5 6 6 7 6 5 6 3 0 3 3 4 3 1 2 5 4 3 2 3 3 5 5 4 9 10 12 12 11 9 7 7 7 7
2 3 3 4 6 5 7 7 7 6 7 7 6 6 7 6 2 1 3 4 3 3 2 4 3 5 3 4 5 11 11 12 13 11 9 10 8 6
2 4 7 5 6 5 5 4 5 5 6 6 6 7 7 7 7 2 1 1 2 2 1 4 3 3 4 3 4 4 6 8 12 11 14 12 8 3
3 3 4 8 5 3 2 3 3 5 6 4 4 5 4 5 4 4 2 2 2 3 3 2 3 3 2 4 4 3 4 6 5 6 10 10 4 3
2 3 5 7 5 2 2 4 5 4 3 4 4 4 4 4 5 5 4 3 3 4 5 3 3 2 2 3 3 4 5 4 4 7 7 7 5 2
3 5 5 6 5 4 7 8 6 4 3 3 3 3 3 4 6 4 5 5 3 3 3 3 3 2 1 2 3 3 7 5 5 7 6 5 4 3
4 3 6 5 6 3 4 4 3 3 2 2 3 4 4 4 4 3 2 4 3 4 5 5 5 2 2 2 1 4 5 5 7 6 6 4 3 3
5 2 3 4 3 2 2 3 3 4 4 3 3 4 3 4 3 3 2 2 2 3 5 5 6 2 2 2 3 3 4 6 5 6 4 4 2 2
1 3 2 2 2 2 2 2 3 4 3 3 3 3 3 4 4 3 1 1 2 2 3 3 4 4 3 3 8 4 3 3 3 4 3 3 3 2
3 2 1 2 2 2 1 1 0 3 3 3 2 4 4 3 4 3 3 2 2 2 2 2 2 3 5 4 5 7 3 3 4 4 2 2 3 4
2 0 2 3 1 1 2 2 2 3 3 3 4 4 4 3 4 4 4 3 3 2 3 2 2 2 1 2 3 5 9 4 2 5 4 3 5 11
1 2 2 1 1 0 1 1 1 2 2 3 3 4 4 4 4 4 5 6 5 2 4 4 4 4 3 2 3 5 5 10 9 5 3 3 3 4
3 3 3 1 1 0 1 0 2 3 3 3 4 4 4 4 4 5 5 4 4 3 3 4 4 2 1 3 4 5 5 5 7 15 16 11 3 3
2 3 3 2 1 1 0 1 2 2 3 3 4 4 5 6 5 4 4 4 4 4 3 5 4 2 2 2 3 4 6 5 3 6 5 7 17 20
Wind_Direction
37 42 43 18 30 34 53 79 130 109 12 356 10 2 347 335 327 343 339 333 339 330 320 322 333 5 48 72 70 10 333 328 9 355 314 342 346 325
28 46 34 14 27 24 33 45 68 120 92 343 354 339 343 357 10 12 5 18 8 18 16 329 276 261 261 267 270 267 260 255 260 256 258 258 256 264
32 44 40 22 32 21 22 34 39 69 103 12 25 7 36 23 6 4 8 8 352 21 23 18 21 358 299 288 282 276 270 264 258 256 254 254 248 246
41 50 37 33 36 25 29 33 38 30 100 90 346 8 39 3 337 360 347 350 347 18 12 10 7 9 14 355 337 323 310 291 279 276 278 268 274 280
45 50 38 48 40 30 31 37 30 38 45 86 20 326 351 18 342 332 333 334 339 21 5 357 356 359 3 359 357 350 340 309 280 261 258 266 264 272
36 39 40 58 68 59 50 40 41 50 40 49 29 2 7 326 345 339 342 338 329 339 346 351 360 2 359 2 350 353 341 333 345 331 313 295 296 298
35 28 28 53 65 81 75 40 54 49 42 46 32 9 357 349 0 309 311 317 318 332 322 334 353 346 340 345 336 336 330 328 346 6 34 48 19 323
44 26 24 32 32 50 52 52 64 71 36 54 3 6 330 303 329 339 334 356 333 347 341 318 5 334 323 332 333 335 333 331 333 345 341 328 353 351
57 35 29 20 32 30 22 35 29 41 83 147 42 327 317 280 315 323 328 299 281 300 4 313 348 323 321 331 340 354 4 4 351 336 328 320 304 313
82 66 46 24 21 45 26 22 10 26 13 20 100 294 243 298 241 233 288 291 283 295 328 313 335 325 324 326 335 353 1 353 343 321 300 288 279 272
27 15 33 4 355 46 48 18 359 9 353 15 34 14 4 350 342 18 353 8 328 300 317 335 327 327 313 303 322 345 347 339 339 329 315 285 267 280
332 345 322 299 344 26 58 38 359 350 348 358 -0 357 4 354 15 37 297 327 281 296 321 348 311 351 326 315 311 325 344 335 327 327 324 317 258 272
324 332 310 325 335 344 111 38 326 323 347 6 359 354 351 355 351 352 322 220 301 286 14 0 303 330 257 284 299 313 345 329 329 326 326 332 309 240
346 290 293 313 314 3 74 5 18 44 22 15 10 354 345 337 330 336 342 341 251 265 317 354 289 319 295 302 317 317 332 322 333 337 340 338 5 40
294 290 282 82 93 74 53 33 28 31 26 20 350 320 284 288 307 336 344 3 353 343 352 343 290 303 289 297 297 312 328 335 348 341 339 341 351 356
337 352 50 56 56 65 51 25 21 24 45 13 324 301 313 343 339 333 326 339 349 328 327 338 342 334 313 275 286 313 349 333 328 334 323 306 342 7
303 42 35 13 22 61 37 9 18 24 20 354 359 347 335 330 321 314 311 332 5 316 321 321 337 311 267 287 316 297 319 336 311 321 329 321 331 4
70 48 33 1 316 29 351 6 17 7 10 358 354 342 333 332 324 314 276 275 317 313 306 312 334 347 334 273 210 270 294 292 301 314 312 303 294 275
68 52 326 289 277 238 326 3 46 16 358 18 352 333 327 322 336 312 316 305 303 309 298 307 343 25 2 335 294 212 241 278 312 310 286 254 277 284
70 238 289 299 12 21 15 19 52 20 7 352 344 330 331 316 321 328 328 323 307 303 303 295 280 233 199 257 299 277 216 257 261 299 300 282 260 281
275 291 333 332 128 103 354 357 55 24 342 337 336 328 325 328 327 328 328 329 325 301 308 295 252 220 262 288 278 288 291 228 229 221 239 282 292 312
281 274 275 162 99 41 180 239 359 6 348 342 332 324 318 314 324 326 331 334 335 307 268 277 312 332 239 222 279 277 292 307 268 253 244 220 203 271
297 143 138 142 103 43 148 333 349 338 333 329 328 326 328 331 327 319 313 329 346 334 326 319 323 325 273 252 265 294 288 294 313 329 311 258 240 250